Flag for Sweden Weather past 2 weeks in Norrköping, Sweden

Now
36 °F

Chilly.


Feels Like: 36 °F
Forecast: 36 / 64 °F
Wind: 2 mph from Southeast

Location: Norrkoping Airport


UV Index: 3 (Moderate)

Visibility: N/A


Pressure: 30.24 "Hg

Humidity: 93%

Dew point: 34 °F

Location of NorrköpingLocation

Historic Weather in Norrköping

°F

Norrköping temperature yesterday

Maximum temperature yesterday: 63 °F (at 4:50 PM)
Minimum temperature yesterday: 28 °F (at 5:20 AM)
Average temperature yesterday: 45 °F

Past Weeks' High & Low Weather Summary

 TemperatureHumidityPressure
High63 °F (Apr 19, 4:50 PM)100% (Apr 7, 12:50 AM)30.36 "Hg (Apr 7, 12:50 AM)
Low19 °F (Apr 5, 5:50 AM)26% (Apr 14, 2:50 PM)29.39 "Hg (Apr 14, 12:20 AM)
Average45 °F73%29.88 "Hg
* Reported Apr 5 2:20 AM — Apr 20 2:20 AM, Norrköping, Weather by CustomWeather, © 2014

Note: Actual official high and low records may vary slightly from our data, if they occured in-between our weather recording intervals... More about our weather records

Advertising

Historic Weather Conditions — Data for Previous 24 hours

 ConditionsComfort  
Time TempWeatherWind HumidityBarometerVisibility
2:20 AM
Apr 20
36 °FChilly.No wind93%30.24 "HgN/A
1:50 AM36 °FChilly.No wind93%30.24 "HgN/A
1:20 AM37 °FChilly.No wind93%30.27 "HgN/A
12:50 AM39 °FChilly.2 mph87%30.27 "HgN/A
12:20 AM39 °FChilly.1 mph87%30.27 "HgN/A
11:50 PM
Apr 19
39 °FChilly.3 mph87%30.27 "HgN/A
11:20 PM37 °FChilly.5 mph87%30.24 "HgN/A
10:50 PM41 °FQuite cool.3 mph81%30.24 "HgN/A
10:20 PM43 °FQuite cool.3 mph81%30.24 "HgN/A
9:50 PM46 °FCool.5 mph71%30.24 "HgN/A
9:20 PM46 °FCool.3 mph71%30.24 "HgN/A
8:50 PM48 °FCool.3 mph66%30.24 "HgN/A
8:20 PM52 °FCool.6 mph62%30.24 "HgN/A
7:50 PM54 °FCool.6 mph58%30.24 "HgN/A
7:20 PM59 °FRefreshingly cool.5 mph48%30.24 "HgN/A
6:50 PM61 °FSunny.2 mph42%30.24 "Hg10 mi
6:20 PM61 °FPassing clouds.3 mph39%30.24 "HgN/A
5:50 PM61 °FSunny.7 mph45%30.24 "Hg10 mi
5:20 PM61 °FPassing clouds.6 mph39%30.24 "HgN/A
4:50 PM63 °FMild.5 mph39%30.24 "HgN/A
4:20 PM61 °FRefreshingly cool.7 mph42%30.27 "HgN/A
3:50 PM61 °FRefreshingly cool.5 mph42%30.27 "HgN/A
3:20 PM61 °FRefreshingly cool.3 mph45%30.27 "HgN/A
2:50 PM61 °FRefreshingly cool.6 mph42%30.27 "HgN/A
2:20 PM59 °FRefreshingly cool.3 mph45%30.30 "HgN/A
1:50 PM59 °FRefreshingly cool.5 mph45%30.30 "HgN/A
1:20 PM57 °FRefreshingly cool.2 mph48%30.30 "HgN/A
12:50 PM57 °FRefreshingly cool.2 mph51%30.30 "HgN/A
12:20 PM55 °FRefreshingly cool.1 mph55%30.30 "HgN/A
11:50 AM54 °FCool.No wind54%30.30 "HgN/A
11:20 AM52 °FCool.No wind62%30.30 "HgN/A
10:50 AM48 °FCool.1 mph82%30.30 "HgN/A
10:20 AM45 °FQuite cool.1 mph100%30.33 "HgN/A
9:50 AM43 °FPassing clouds.No wind100%30.33 "Hg1 mi
9:20 AM39 °FFog.1 mph100%30.33 "Hg0 mi
8:50 AM37 °FFog.2 mph100%30.30 "Hg0 mi
8:20 AM37 °FFog.No wind93%30.30 "Hg0 mi
7:50 AM36 °FFog.No wind100%30.30 "Hg0 mi
7:20 AM34 °FFog.No wind100%30.30 "Hg0 mi
6:50 AM32 °FFog.No wind100%30.27 "Hg0 mi
6:20 AM32 °FLight fog.No wind93%30.27 "Hg2 mi
5:50 AM30 °FLight fog.1 mph100%30.27 "Hg2 mi
5:20 AM28 °FClear.3 mph100%30.27 "Hg2 mi
4:50 AM30 °FLight fog.1 mph100%30.24 "Hg0 mi
4:20 AM32 °FLight fog.No wind93%30.24 "Hg1 mi
3:50 AM32 °FIce fog.No wind93%30.24 "Hg0 mi
3:20 AM32 °FIce fog.No wind100%30.24 "Hg0 mi
Weather by CustomWeather, © 2014

See weather overview